Location: Rometta
(44.2000°N, 10.0500°E)
Time: 23:37:43
(UTC+00:00)

Daily predictions for brighter satellites

Satellite Brightness Start Highest point End
(mag) Time Altitude Azimuth Time Altitude Azimuth Time Altitude Azimuth
Cosmos 1354 Rocket 4.0 16:08:09 10° NNW 16:13:32 78° ENE 16:18:51 10° SSE
CZ-4B R/B 2.9 16:14:02 10° SSE 16:18:20 80° ENE 16:22:26 10° N
ADEOS 4.5 16:15:17 10° S 16:20:23 55° W 16:25:31 10° NNW
Cosmos 1869 4.3 16:21:24 10° SSW 16:25:13 48° WNW 16:29:00 10° N
Iridium 2 3.8 16:22:37 10° N 16:26:19 51° E 16:29:58 10° SSE
Cosmos 1766 Rocket 3.5 16:23:08 10° N 16:27:28 64° E 16:31:46 10° SSE
USA 305 2.9 16:25:11 10° SW 16:29:24 86° SE 16:33:32 11° NE
EXPRESS MD2 4.4 16:27:54 10° W 16:29:45 23° SW 16:31:38 10° SSE
Cosmos 1606 3.2 16:26:57 10° SSE 16:30:26 38° E 16:33:57 10° NNE
SL-08 R/B 4.1 16:27:21 10° N 16:32:02 55° WNW 16:36:36 10° SSW
ARGOS 4.2 16:28:41 10° ESE 16:32:55 24° ENE 16:37:08 10° N
Okean O Rocket 2.8 16:32:24 10° ESE 16:35:41 21° ENE 16:38:59 10° NNE
USA 276 3.4 16:33:19 10° WNW 16:36:04 27° N 16:38:19 13° NE
COSMO-SKYMED 1 3.8 16:35:05 10° NE 16:38:30 22° E 16:41:54 10° SE
Cosmos 1464 Rocket 4.1 16:32:40 10° S 16:38:53 61° E 16:45:11 10° NNE
Aureole 3 4.2 16:36:45 10° S 16:41:44 79° E 16:48:07 10° N
ERBS 2.9 16:42:18 10° SSW 16:45:16 36° SE 16:47:12 18° ENE
Cosmos 2221 2.5 16:44:18 10° S 16:48:27 55° E 16:52:38 10° NNE
Meteor 2-19 Rocket 4.5 16:42:40 10° N 16:48:41 59° ENE 16:54:39 10° SSE
NOSS 2-1 (E) 2.9 16:46:11 10° SW 16:49:31 76° NW 16:52:18 14° NE
ISS -2.4 16:49:40 10° W 16:52:44 31° NNW 16:54:50 17° NE
USA 267 4.2 16:47:44 10° NE 16:53:38 38° NNW 16:59:33 10° W
CZ-2C R/B 3.1 16:49:43 10° NNE 16:54:31 35° E 16:59:14 10° SSE
deb Kosmos-1763 4.0 16:53:22 10° S 16:56:41 52° ESE 16:59:08 17° NE
deb Chang Zheng 4 4.0 16:52:44 10° SE 16:56:43 38° ENE 17:00:43 10° N
YAOGAN 1 4.4 16:58:27 14° NE 16:58:27 14° NE 16:59:36 10° NNE
Cosmos 1340 Rocket 3.4 16:53:10 10° N 16:56:54 34° ENE 17:00:37 10° SE
AQUARIUS 4.2 16:52:57 10° SSE 16:57:25 83° WSW 17:01:57 10° NNW
Cosmos 1271 Rocket 3.5 16:56:11 10° SSW 16:59:58 53° WNW 17:03:52 10° N
USA 306 3.2 16:56:56 10° WSW 17:01:08 60° NNW 17:04:01 19° NE
Nadezhda 4 Rocket 4.0 16:55:09 10° N 17:01:26 66° E 17:07:42 10° SSE
Lacrosse 5 rocket 3.4 16:59:40 10° NW 17:01:50 14° N 17:03:54 11° NNE
USA 229 DEB 4.5 16:55:48 10° NNW 17:02:22 35° NE 17:07:26 17° E
SMAP 3.7 16:59:55 10° S 17:04:30 60° W 17:09:07 10° NNW
Landsat 5 4.3 17:02:19 19° NE 17:04:32 30° E 17:08:10 10° SSE
CZ-4B DEB 4.4 17:02:11 10° SSE 17:07:43 80° WSW 17:13:16 10° NNW
Cosmos 1092 Rocket 4.3 17:02:15 10° N 17:08:20 45° ENE 17:14:21 10° SSE
ATLAS 2AS CENTAUR R/B 4.4 17:01:45 10° W 17:08:25 29° NNW 17:14:53 10° NNE
Cosmos 1408 Rocket 3.4 17:04:54 10° N 17:09:15 83° E 17:13:36 10° S
Cosmos 1743 Rocket 3.7 17:07:00 10° N 17:11:12 46° ENE 17:15:20 10° SSE
H-2A R/B 2.0 17:06:52 10° SSE 17:12:10 78° ENE 17:17:20 10° N
Cosmos 1697 Rocket 3.6 17:08:13 10° N 17:12:57 27° NE 17:14:22 24° ENE
Cosmos 1980 Rocket 3.7 17:09:30 10° N 17:12:43 17° NE 17:12:43 17° NE
COSMOS 2406 4.3 17:10:24 10° SSE 17:14:45 23° E 17:15:10 23° E
PAYLOAD B 4.3 17:09:19 10° SSE 17:14:56 88° WSW 17:20:35 10° NNW
USA 307 3.4 17:12:04 10° WSW 17:16:15 53° NNW 17:18:33 25° NE
SJ-11-01 4.4 17:12:53 10° SSE 17:17:28 52° ENE 17:22:06 10° N
Cosmos 2082 Rocket 4.2 17:16:05 10° SE 17:16:18 11° SE 17:16:18 11° SE
Cosmos 44 3.5 17:14:36 10° NNW 17:19:13 42° NE 17:20:56 30° E
Cosmos 2034 Rocket 3.9 17:14:05 10° S 17:20:16 87° E 17:26:27 10° N
ATLAS CENTAUR R/B 2.8 17:16:45 10° WSW 17:20:31 34° NW 17:23:56 13° NNE
Lacrosse 5 2.5 17:19:25 10° NW 17:24:26 58° SW 17:29:25 10° SSE
NOSS 3-1 (A) 4.3 17:18:53 10° NNW 17:25:59 49° NE 17:31:39 21° ESE
SKYMED 2 3.4 17:22:52 13° NNE 17:26:47 71° ESE 17:31:06 10° S
Cosmos 1809 Rocket 4.4 17:23:21 10° N 17:29:23 56° ENE 17:35:19 10° SSE
Cosmos 1898 Rocket 3.9 17:24:49 10° N 17:29:48 40° ENE 17:31:16 33° E
NOSS 3-1 (C) 4.0 17:23:36 10° NW 17:31:05 73° NE 17:39:51 10° SE
MOS 1-B Rocket 3.9 17:26:00 10° NNE 17:31:43 90° E 17:37:59 10° SSW
Cosmos 1656 3.5 17:26:55 10° NNW 17:32:26 68° ENE 17:37:59 10° SSE
GEOS 3 Rocket 3.6 17:28:10 10° SE 17:33:27 88° SW 17:38:41 10° NW
CZ-2D R/B 4.3 17:29:51 10° S 17:33:35 48° W 17:37:20 10° NNW
Meteor 1-20 Rocket 4.2 17:31:15 10° N 17:37:04 78° E 17:42:55 10° SSE
USA 308 3.8 17:34:26 10° W 17:38:27 40° NNW 17:39:46 31° NNE
SL-08 RB Rocket 3.7 17:33:55 10° SSE 17:38:28 57° ENE 17:43:02 10° N
Cosmos 468 Rocket 3.9 17:36:01 10° S 17:41:02 59° ESE 17:42:42 39° NE
Cosmos 2279 Rocket 4.3 17:37:02 10° SSE 17:42:43 39° E 17:43:29 38° ENE
Cosmos 1500 Rocket 3.7 17:38:19 10° NNW 17:42:47 76° W 17:47:12 10° S
SJ 16-02 3.2 17:41:23 10° NW 17:45:17 32° W 17:49:11 10° SSW
DMSP B5D2-2 4.4 17:48:33 42° ESE 17:48:33 42° ESE 17:52:55 10° S
Cosmos 2360 4.5 17:42:44 10° NNW 17:48:15 44° ENE 17:48:27 44° ENE
Cosmos 1634 Rocket 3.9 17:42:25 10° S 17:48:40 69° E 17:54:59 10° NNE
CZ-4B R/B 3.7 17:47:22 10° S 17:52:48 61° WSW 17:58:10 10° NNW
Cosmos 1805 Rocket 3.3 17:48:46 10° N 17:53:08 82° E 17:57:28 10° S
CZ-4C R/B 3.7 17:49:54 10° NNW 17:55:51 29° NE 17:56:09 29° NE
CZ-4 R/B 3.9 18:00:41 12° N 18:00:41 12° N 18:01:01 10° N
Cosmos 1833 Rocket 2.6 17:52:25 10° S 17:57:56 64° ESE 17:58:47 56° ENE
ATLAS 5 CENTAUR R/B 3.7 17:53:19 10° NW 17:58:54 25° N 17:58:54 25° N
Cosmos 540 Rocket 3.9 17:58:37 10° S 18:02:28 45° SSE 18:02:28 45° SSE
Cosmos 2026 Rocket 4.0 18:03:26 10° N 18:09:39 79° W 18:15:43 10° S
USA 305 4.3 18:05:58 10° WNW 18:09:31 28° NNW 18:09:31 28° NNW
Okean O Rocket 2.8 18:07:31 10° S 18:11:44 43° W 18:16:00 10° NNW
ARGOS 3.9 18:07:32 10° S 18:12:49 52° W 18:18:07 10° NNW
COSMO-SKYMED 1 4.0 18:11:30 14° N 18:14:45 36° WNW 18:18:43 10° SW
Spot 2 4.4 18:11:27 20° SSE 18:14:59 83° WSW 18:20:10 10° NNW
ATLAS CENTAUR R/B 2.6 18:09:33 10° SW 18:18:50 74° NW 18:19:17 69° N
Cosmos 1782 4.5 18:16:55 10° SSW 18:18:52 27° SSW 18:18:52 27° SSW
Cosmos 1937 Rocket 4.0 18:17:09 10° NNW 18:21:06 50° N 18:21:06 50° N
Meteor 2-16 Rocket 4.3 18:19:34 10° N 18:25:15 75° NNE 18:25:15 75° NNE
Cosmos 1763 Rocket 4.1 18:22:55 10° SW 18:27:50 52° WNW 18:28:45 46° NNW
ISS -0.6 18:27:29 10° NW 18:27:49 12° NW 18:27:49 12° NW
CZ-2C R/B 4.2 18:30:09 10° N 18:34:44 31° WNW 18:39:14 10° SW
USA 267 4.4 18:35:05 28° N 18:35:36 29° N 18:41:00 10° NW
USA 229 DEB 4.0 18:46:34 10° NW 18:53:56 72° WSW 18:54:57 64° S
USA 229 4.0 18:46:39 10° NW 18:54:02 72° WSW 18:54:59 65° SSW
Cosmos 1697 Rocket 3.6 18:51:46 10° NW 18:56:10 45° WNW 18:56:10 45° WNW
COSMOS 2455 4.1 18:51:42 10° SSW 18:54:37 31° SSW 18:54:37 31° SSW
Cosmos 1980 Rocket 3.9 18:52:16 10° NNW 18:54:31 25° NNW 18:54:31 25° NNW
COSMOS 2406 4.1 18:52:56 10° SW 18:57:18 46° WSW 18:57:18 46° WSW
Cosmos 2082 Rocket 4.1 18:56:27 10° SSW 18:58:13 21° SSW 18:58:13 21° SSW
CZ-4C R/B 4.2 19:38:00 10° NW 19:41:21 32° NW 19:41:21 32° NW
